Regional Weather Roundup
Issued by NWS

Home | Current Version | Previous Version | Text Only | Print | Product List | Glossary On
Versions: 1 2 3 4 5 6 7 8 9 10 11 12 13 14 15 16 17 18 19 20 21 22 23 24 25 26 27 28 29 30 31 32 33 34 35 36 37 38 39 40 41 42 43 44 45 46 47 48 49 50
000
ASUS44 KOUN 061110
RWROK

WEATHER ROUNDUP FOR OKLAHOMA
NATIONAL WEATHER SERVICE NORMAN OK
600 AM CDT MON JUL 06 2015

NOTE: "FAIR" INDICATES FEW OR NO CLOUDS BELOW 12,000 FEET WITH NO
      SIGNIFICANT WEATHER AND/OR OBSTRUCTIONS TO VISIBILITY.

OKZ001>007-009>012-014-015-017-061200-
NORTHWEST OKLAHOMA AND THE PANHANDLE

CITY           SKY/WX    TMP DP  RH WIND       PRES   REMARKS
GAGE           CLEAR     74  64  71 S18       29.88S
GUYMON         CLEAR     70  64  81 SW6       29.91R
ENID/WOODRING  MOCLDY    77  70  78 S9        29.88R
$$

OKZ016-021>023-033>039-044-045-061200-
SOUTHWEST OKLAHOMA

CITY           SKY/WX    TMP DP  RH WIND       PRES   REMARKS
LAWTON/REGL    PTCLDY    76  70  82 S7        29.93R
LAWTON/FT SILL PTCLDY    75  72  88 S8        29.92S
FREDERICK      CLEAR     77  70  79 S13       29.89S
CLINTON        CLEAR     75  68  78 S17       29.93S
HOBART         CLEAR     75  69  81 S15       29.92S
$$

OKZ018>020-024>031-061200-
CENTRAL OKLAHOMA

CITY           SKY/WX    TMP DP  RH WIND       PRES   REMARKS
OKLAHOMA CITY  MOCLDY    75  71  87 S9        29.93R
OKC/WILEY POST PTCLDY    78  70  76 S15G23    29.92S
OKC/TINKER AFB PTCLDY    75  70  84 S13       29.93R
STILLWATER     MOCLDY    77  70  79 S9        29.92R
GUTHRIE        PTCLDY    78  70  76 S12       29.91R
$$

OKZ008-013-054>072-061200-
NORTHEAST OKLAHOMA

CITY           SKY/WX    TMP DP  RH WIND       PRES   REMARKS
TULSA          CLOUDY    77  72  84 SE8       29.94R
TULSA/JONES    MOCLDY    77  71  82 S6        29.94R
PONCA CITY     MOCLDY    79  70  74 S9G18     29.89R
BARTLESVILLE   MOCLDY    74  73  97 SE7       29.93R
MUSKOGEE       MOCLDY    74  72  93 S7        29.98R
$$

OKZ032-040>043-046>053-073>077-061200-
SOUTH CENTRAL/SOUTHEAST OKLAHOMA

CITY           SKY/WX    TMP DP  RH WIND       PRES   REMARKS
ARDMORE/DWNTWN PTCLDY    77  70  78 S7        29.96S
MCALESTER      PTCLDY    77  72  84 S8        29.99R
$$




USA.gov is the U.S. government's official web portal to all federal, state and local government web resources and services.